Temp
71 70 68 66 66 66 63 62 62 61 60 58 56 55 55 56 57 58 57 58 57 56 56 55 54 53 52 53 54 55 54 55 54 56 58 61 61 63 65 64 67 69 69
70 68 68 67 65 62 61 61 60 59 57 56 54 52 53 55 56 57 56 57 56 55 54 52 52 57 52 52 53 54 54 54 54 55 55 58 61 64 64 61 64 67 65
70 70 68 66 62 60 59 58 57 56 54 54 52 52 53 54 55 56 55 54 55 55 53 51 51 53 52 53 55 57 56 57 54 53 54 56 58 62 60 62 62 61 65
68 66 62 62 60 59 58 56 55 54 53 52 50 52 52 53 54 56 55 54 54 55 54 52 52 53 53 53 57 63 65 56 53 52 53 53 55 57 57 56 59 61 60
65 63 61 59 59 58 56 55 54 53 52 51 50 51 52 55 58 55 55 54 53 53 54 54 55 61 64 62 54 53 53 52 52 51 55 62 53 53 53 54 54 55 58
63 61 60 59 58 56 55 54 53 51 51 50 50 51 52 59 64 65 59 54 54 53 52 52 54 57 57 62 64 64 60 51 50 49 48 51 52 52 53 52 51 51 52
62 60 60 58 57 55 54 54 53 52 52 51 51 51 52 53 63 64 65 55 54 52 52 52 55 58 55 52 58 60 60 62 61 50 48 50 51 53 52 51 50 49 50
61 60 59 58 55 54 54 53 53 52 53 53 53 52 52 55 62 63 63 54 54 53 53 52 51 52 53 55 53 53 53 54 54 56 51 52 53 54 53 52 51 50 51
60 59 59 58 55 54 53 52 52 52 52 52 53 53 53 54 61 61 55 52 53 53 53 53 52 52 59 61 52 52 52 54 60 62 62 62 62 63 60 52 50 47 47
60 59 58 57 55 53 53 53 53 53 54 54 54 53 57 54 59 60 55 51 50 52 52 52 59 57 59 59 51 50 50 52 51 52 54 55 56 56 61 51 49 46 45
61 59 57 56 55 54 53 53 53 54 54 54 54 54 54 55 56 58 58 53 51 51 51 52 53 58 56 55 56 50 53 53 54 50 50 52 52 52 53 51 50 48 46
60 59 56 55 59 57 54 53 54 53 53 53 53 53 55 55 57 58 57 58 57 51 51 51 52 55 54 54 55 57 57 57 50 50 49 49 49 50 52 51 51 50 49
59 57 55 55 56 55 53 53 52 53 53 53 53 52 52 54 55 58 57 57 58 53 52 54 56 54 54 57 58 59 57 51 50 50 48 48 48 49 49 49 51 50 51
58 57 55 54 54 53 54 54 53 53 52 52 52 52 51 52 53 54 54 54 57 55 56 52 54 56 57 56 55 55 54 56 55 49 48 47 48 49 48 47 47 46 46
58 57 55 54 53 53 53 54 54 55 54 53 53 52 52 52 55 54 53 53 52 52 50 48 49 48 49 49 52 56 56 56 55 48 47 46 46 46 46 46 45 44 42
57 56 56 54 53 53 53 53 53 53 52 50 51 54 54 53 52 51 48 48 49 50 48 48 49 48 48 49 49 53 57 58 52 48 47 46 45 45 45 45 43 42 40
59 57 57 54 53 53 52 52 53 56 53 50 47 48 49 54 50 48 46 46 47 48 47 48 48 47 48 48 52 53 55 54 48 46 45 45 44 44 43 42 41 40 40
57 55 56 54 55 54 53 54 53 52 53 56 56 52 49 47 46 45 44 45 45 44 45 47 47 47 48 49 49 49 49 50 46 45 45 44 43 43 41 41 40 39 39
55 55 55 54 53 54 54 54 53 54 53 55 58 54 52 46 45 44 44 49 49 48 47 46 47 48 49 49 49 48 47 46 45 44 43 42 42 41 40 40 40 44 43
57 59 57 55 54 54 54 53 53 53 54 54 54 56 53 54 52 51 46 46 46 47 48 48 50 49 49 49 47 46 45 44 43 43 42 41 41 40 40 40 40 39 39
58 59 59 57 57 55 54 55 55 56 57 54 57 55 53 58 55 53 51 49 49 49 49 49 48 48 47 46 45 45 44 44 43 42 42 41 41 40 40 39 39 39 39
59 58 56 57 56 55 55 55 55 56 57 60 60 56 48 53 55 51 50 50 50 49 48 48 48 47 47 46 46 45 45 44 43 42 42 41 40 40 39 38 38 38 39
58 57 58 58 57 56 56 58 59 60 61 59 59 58 57 55 51 50 50 50 49 48 48 47 47 47 46 46 46 46 46 44 43 43 42 41 39 39 38 37 38 37 37
57 59 59 57 57 56 55 57 60 54 59 58 56 55 52 51 51 51 50 49 48 48 48 47 47 47 46 46 46 45 44 43 42 42 42 39 38 37 37 36 37 38 39
58 58 57 56 56 55 57 58 59 58 57 55 53 52 51 51 50 50 49 48 48 47 48 47 46 47 49 49 46 43 41 41 42 40 38 37 36 36 36 36 37 38 39
57 57 57 56 57 57 57 56 55 54 53 53 53 51 51 50 49 48 47 47 46 47 47 46 47 49 47 46 45 42 35 36 39 35 35 34 34 34 35 36 37 38 39
MSLP
1012.13 1012.70 1013.27 1014.10 1014.71 1015.11 1015.63 1016.13 1016.57 1016.95 1017.25 1017.50 1017.69 1017.72 1017.74 1017.60 1017.52 1017.48 1017.50 1017.68 1017.74 1017.79 1017.76 1017.77 1017.85 1017.72 1017.55 1017.26 1016.97 1016.70 1016.46 1016.18 1016.18 1015.73 1015.26 1014.61 1014.20 1013.72 1013.16 1012.85 1012.32 1011.88 1011.62
1012.30 1012.96 1013.59 1014.27 1015.05 1015.65 1016.19 1016.55 1016.85 1017.31 1017.70 1017.89 1018.05 1018.07 1018.13 1018.19 1017.94 1018.02 1018.02 1018.00 1018.09 1018.14 1018.17 1018.11 1018.12 1017.78 1017.71 1017.51 1017.27 1017.02 1016.75 1016.49 1016.44 1016.28 1015.76 1015.16 1014.63 1014.26 1013.83 1013.43 1012.94 1012.33 1011.95
1012.49 1013.04 1013.78 1014.46 1015.37 1016.00 1016.41 1016.82 1017.16 1017.53 1017.90 1018.17 1018.31 1018.54 1018.59 1018.60 1018.47 1018.39 1018.34 1018.31 1018.35 1018.55 1018.62 1018.54 1018.42 1018.06 1017.91 1017.61 1017.36 1017.15 1016.73 1016.53 1016.52 1016.41 1016.17 1015.54 1015.11 1014.64 1014.20 1013.62 1013.16 1012.66 1012.12
1012.73 1013.25 1014.21 1014.88 1015.56 1016.29 1016.96 1017.35 1017.66 1017.90 1018.14 1018.45 1018.67 1018.79 1018.93 1018.89 1018.78 1018.78 1018.83 1018.86 1018.90 1018.94 1018.99 1018.79 1018.51 1018.24 1018.04 1017.77 1017.51 1017.00 1016.57 1016.63 1016.63 1016.49 1016.33 1015.98 1015.57 1015.06 1014.76 1014.41 1013.59 1012.97 1012.53
1012.98 1013.57 1014.40 1015.03 1015.76 1016.35 1016.99 1017.50 1017.76 1018.06 1018.44 1018.63 1018.81 1018.93 1018.99 1019.06 1018.98 1018.95 1019.01 1019.07 1019.06 1019.04 1019.06 1018.89 1018.60 1018.21 1018.03 1017.83 1017.73 1017.56 1017.28 1017.11 1017.03 1016.90 1016.38 1015.87 1015.88 1015.69 1015.39 1015.01 1014.48 1013.74 1012.90
1012.78 1013.74 1014.33 1015.00 1015.73 1016.56 1017.07 1017.57 1017.89 1018.15 1018.47 1018.75 1019.01 1019.00 1019.03 1019.12 1018.97 1018.84 1018.95 1019.15 1019.17 1019.16 1019.14 1018.96 1018.80 1018.54 1018.36 1018.16 1017.87 1017.60 1017.34 1017.39 1017.28 1017.31 1017.21 1016.77 1016.46 1016.07 1015.74 1015.37 1014.92 1014.45 1013.93
1012.95 1013.71 1014.22 1014.96 1015.84 1016.70 1017.27 1017.63 1017.92 1018.25 1018.50 1019.03 1019.33 1019.30 1019.36 1019.19 1018.99 1018.83 1018.98 1019.13 1019.16 1019.23 1019.30 1019.19 1018.92 1018.66 1018.45 1018.18 1017.95 1017.76 1017.61 1017.38 1017.14 1017.20 1017.22 1016.98 1016.73 1016.26 1015.96 1015.64 1015.32 1015.03 1014.70
1012.96 1013.76 1014.02 1014.56 1015.63 1016.62 1017.18 1017.82 1018.01 1018.18 1018.39 1018.69 1018.98 1018.91 1019.12 1019.23 1019.13 1019.01 1019.09 1019.17 1019.26 1019.34 1019.43 1019.24 1018.97 1018.77 1018.43 1018.27 1018.07 1017.81 1017.67 1017.31 1017.02 1016.85 1016.84 1016.61 1016.34 1016.14 1015.95 1015.80 1015.61 1015.32 1014.66
1012.91 1013.68 1014.10 1014.61 1015.34 1016.31 1017.11 1017.58 1017.97 1018.11 1018.43 1018.58 1018.78 1018.96 1019.02 1018.98 1019.18 1019.09 1019.13 1019.34 1019.45 1019.40 1019.37 1019.18 1018.98 1018.78 1018.38 1018.30 1018.31 1018.22 1017.99 1017.38 1016.76 1016.45 1016.17 1015.90 1015.72 1015.60 1015.52 1015.74 1015.86 1015.89 1015.42
1012.44 1013.15 1013.84 1014.50 1015.24 1016.17 1016.93 1017.23 1017.61 1017.88 1018.27 1018.62 1018.86 1018.80 1018.92 1018.94 1019.00 1019.10 1019.13 1019.41 1019.69 1019.51 1019.25 1019.08 1018.79 1018.66 1018.34 1018.12 1018.10 1018.06 1018.01 1017.75 1017.47 1016.98 1016.56 1016.26 1016.09 1015.83 1015.56 1015.87 1016.02 1016.01 1015.80
1012.36 1013.40 1014.06 1014.58 1015.35 1016.02 1016.71 1016.89 1017.25 1017.69 1017.97 1018.31 1018.65 1018.64 1018.60 1018.67 1018.66 1018.84 1018.92 1019.09 1019.38 1019.49 1019.40 1019.06 1018.67 1018.45 1018.09 1017.78 1017.72 1017.82 1017.62 1017.40 1017.46 1017.46 1017.21 1016.74 1016.33 1016.05 1015.83 1015.53 1015.64 1015.81 1015.64
1012.18 1013.34 1013.99 1014.73 1015.43 1015.81 1016.33 1016.53 1016.96 1017.57 1017.86 1018.11 1018.31 1018.33 1018.23 1018.11 1018.11 1018.26 1018.46 1018.56 1018.86 1019.19 1019.20 1018.85 1018.49 1018.14 1017.80 1017.31 1017.17 1017.09 1017.15 1017.49 1017.46 1017.50 1017.51 1017.25 1017.01 1016.57 1016.02 1015.69 1015.31 1015.24 1015.25
1012.31 1013.21 1013.95 1014.65 1015.26 1015.77 1016.29 1016.42 1017.06 1017.54 1017.62 1017.69 1017.92 1017.73 1017.67 1017.58 1017.66 1017.77 1017.96 1018.16 1018.40 1018.58 1018.51 1018.45 1018.25 1017.87 1017.54 1017.24 1017.04 1016.96 1016.95 1017.23 1017.59 1017.66 1017.69 1017.52 1017.22 1016.68 1016.16 1015.75 1015.28 1015.12 1014.85
1012.18 1013.12 1013.87 1014.72 1015.48 1015.86 1016.10 1016.46 1017.06 1017.09 1017.34 1017.34 1017.55 1017.37 1017.28 1017.45 1017.47 1017.44 1017.59 1017.83 1018.00 1018.10 1018.13 1018.08 1017.91 1017.72 1017.45 1017.22 1016.99 1016.84 1016.92 1017.01 1017.23 1017.37 1017.41 1017.30 1017.07 1016.68 1016.48 1016.19 1016.02 1015.86 1015.73
1011.72 1012.91 1013.79 1014.42 1015.13 1015.68 1015.98 1016.01 1016.46 1016.50 1016.57 1016.64 1016.59 1016.79 1016.95 1017.06 1016.89 1016.91 1017.10 1017.41 1017.54 1017.70 1017.93 1018.02 1017.94 1017.80 1017.41 1017.27 1016.83 1016.50 1016.46 1016.60 1016.85 1017.11 1017.31 1017.35 1017.35 1017.07 1016.79 1016.48 1016.31 1016.26 1016.28
1011.80 1012.81 1013.45 1014.11 1014.80 1015.45 1015.69 1015.91 1015.93 1015.92 1016.01 1015.93 1015.83 1015.96 1016.21 1016.26 1016.39 1016.48 1016.56 1016.86 1017.19 1017.50 1017.97 1017.91 1017.64 1017.44 1017.25 1016.90 1016.60 1016.24 1016.07 1016.06 1016.50 1016.80 1017.08 1017.21 1017.39 1017.33 1017.09 1016.84 1016.69 1016.62 1016.53
1011.32 1012.16 1013.04 1013.57 1014.17 1014.87 1015.25 1015.58 1015.89 1015.16 1015.19 1015.06 1015.06 1015.53 1015.74 1015.88 1015.78 1015.93 1016.08 1016.56 1016.85 1017.30 1017.64 1017.44 1017.23 1016.95 1016.67 1016.57 1016.27 1016.11 1015.96 1015.99 1016.31 1016.49 1016.90 1017.19 1017.34 1017.34 1017.16 1017.02 1016.95 1016.79 1016.48
1011.34 1012.10 1012.81 1013.58 1014.19 1014.74 1015.19 1015.28 1015.58 1015.67 1015.56 1014.96 1014.38 1014.70 1014.79 1014.90 1015.09 1015.53 1015.98 1016.55 1017.13 1017.24 1017.00 1016.71 1016.49 1016.30 1016.17 1016.02 1015.90 1015.83 1015.78 1015.93 1016.35 1016.55 1016.81 1017.02 1017.16 1017.19 1017.02 1016.96 1016.87 1016.77 1016.43
1011.31 1012.24 1012.81 1013.45 1013.83 1014.20 1014.74 1015.09 1015.25 1015.11 1015.13 1014.74 1014.33 1014.26 1014.10 1014.19 1014.45 1014.88 1015.33 1015.73 1016.11 1016.09 1015.99 1015.92 1015.77 1015.64 1015.55 1015.42 1015.41 1015.44 1015.64 1015.97 1016.21 1016.49 1016.78 1016.93 1017.01 1017.07 1016.93 1016.80 1016.65 1016.43 1016.20
1011.21 1011.62 1012.37 1013.04 1013.42 1013.71 1014.04 1014.57 1014.79 1014.62 1014.57 1014.37 1014.22 1013.96 1013.98 1014.07 1014.31 1014.63 1015.03 1015.30 1015.35 1015.26 1015.26 1015.25 1014.98 1014.98 1014.98 1014.99 1015.15 1015.43 1015.75 1016.07 1016.30 1016.46 1016.65 1016.80 1016.81 1016.76 1016.73 1016.60 1016.38 1016.20 1015.88
1011.15 1011.51 1011.97 1012.56 1012.98 1013.14 1013.45 1013.82 1014.06 1014.12 1014.17 1013.80 1013.24 1013.25 1013.17 1013.31 1013.72 1014.26 1014.38 1014.59 1014.65 1014.62 1014.53 1014.49 1014.55 1014.69 1014.82 1014.92 1015.07 1015.29 1015.57 1015.79 1015.96 1016.15 1016.33 1016.41 1016.41 1016.45 1016.27 1016.16 1015.99 1015.73 1015.47
1011.13 1011.65 1012.18 1012.23 1012.69 1013.07 1013.24 1013.53 1013.57 1013.45 1013.25 1013.13 1012.68 1012.68 1012.92 1013.03 1013.14 1013.51 1013.82 1014.01 1014.05 1014.01 1014.07 1014.19 1014.32 1014.37 1014.34 1014.46 1014.63 1014.85 1015.09 1015.29 1015.47 1015.71 1015.91 1015.99 1016.03 1015.99 1015.90 1015.77 1015.54 1015.31 1015.07
1011.03 1011.56 1011.96 1012.20 1012.32 1012.26 1012.43 1012.82 1012.94 1012.86 1012.72 1012.52 1012.32 1012.52 1012.89 1013.10 1013.26 1013.41 1013.54 1013.71 1013.79 1013.87 1013.90 1014.04 1014.11 1014.14 1014.09 1014.16 1014.17 1014.23 1014.41 1014.53 1014.78 1015.17 1015.40 1015.55 1015.61 1015.57 1015.48 1015.40 1015.16 1014.88 1014.57
1010.98 1011.11 1011.33 1011.61 1011.75 1011.74 1011.98 1012.24 1012.30 1012.24 1012.12 1012.22 1012.44 1012.52 1012.67 1012.91 1013.05 1013.12 1013.27 1013.46 1013.60 1013.72 1013.69 1013.80 1013.89 1013.85 1013.77 1013.69 1013.72 1013.83 1014.00 1014.24 1014.52 1014.79 1014.90 1015.20 1015.24 1015.13 1015.04 1014.90 1014.63 1014.27 1013.91
1010.57 1010.62 1011.19 1011.49 1011.57 1011.53 1011.63 1011.73 1011.83 1011.86 1012.05 1011.97 1012.11 1012.48 1012.60 1012.69 1012.87 1013.00 1013.13 1013.25 1013.40 1013.57 1013.60 1013.54 1013.55 1013.44 1013.25 1013.11 1013.24 1013.47 1013.65 1013.86 1014.11 1014.31 1014.56 1014.75 1014.78 1014.66 1014.52 1014.29 1013.95 1013.61 1013.24
1010.31 1010.73 1011.01 1011.31 1011.30 1011.37 1011.49 1011.69 1011.71 1011.80 1012.15 1012.40 1012.49 1012.46 1012.53 1012.71 1012.82 1012.87 1012.92 1013.12 1013.28 1013.33 1013.36 1013.27 1013.19 1012.94 1012.83 1012.86 1012.94 1013.08 1013.32 1013.56 1013.79 1013.98 1014.16 1014.32 1014.25 1014.05 1013.88 1013.60 1013.25 1012.94 1012.48
Wind_Speed
9 9 10 8 8 8 7 6 6 5 5 6 6 6 6 6 5 6 6 5 6 5 5 5 5 5 4 4 4 3 4 3 1 3 2 4 4 6 7 7 7 6 5
10 11 11 10 8 8 6 6 6 6 6 6 5 6 6 5 5 6 6 4 6 6 6 6 6 4 5 4 3 4 2 2 1 2 2 3 3 6 6 6 6 5 6
11 12 11 11 9 7 7 7 6 7 6 6 6 6 5 4 5 4 5 5 5 5 4 5 4 4 4 2 3 3 3 1 1 0 2 2 2 5 5 4 5 5 5
12 13 11 10 9 8 7 7 7 6 7 6 5 5 4 3 4 3 4 4 3 2 3 3 3 3 4 5 5 5 4 4 3 3 2 2 2 3 2 4 7 5 4
11 12 10 9 9 9 8 7 7 7 5 5 5 4 3 2 2 4 4 4 3 3 1 3 3 7 9 7 2 4 5 4 3 4 3 3 2 3 4 3 3 4 3
12 12 11 11 10 8 7 7 7 7 6 5 4 3 2 1 3 7 7 4 2 3 3 3 3 6 7 10 10 9 6 3 3 2 3 3 5 3 3 3 4 4 4
13 12 12 11 10 7 7 7 7 7 5 4 3 3 2 3 3 2 9 4 4 2 2 1 3 3 4 4 7 7 7 6 5 1 1 2 3 3 3 5 4 2 2
13 12 11 12 10 8 8 7 6 4 5 4 4 3 2 2 3 4 3 4 4 3 2 1 1 5 6 5 6 7 6 5 5 3 3 5 4 4 2 1 2 5 3
13 12 11 11 11 8 7 7 4 5 3 3 3 4 3 2 2 5 5 3 3 4 3 3 2 5 9 8 4 5 6 5 6 6 5 5 7 5 1 2 4 4 3
13 12 11 10 10 9 8 7 4 3 3 3 4 4 5 5 5 6 6 2 1 1 3 3 5 4 8 8 2 1 1 4 5 7 7 8 8 7 6 2 1 1 2
10 10 9 9 9 8 7 4 5 4 4 4 4 4 6 7 7 7 9 4 3 1 2 4 4 8 9 6 4 4 6 4 3 3 5 5 5 5 5 3 3 2 0
12 11 9 8 7 6 8 6 5 5 4 5 4 4 4 6 10 9 9 8 8 4 4 3 5 9 10 9 3 7 6 3 1 2 3 4 4 4 6 5 4 0 4
12 10 8 7 6 6 6 6 3 4 4 4 4 3 4 4 6 10 9 9 8 4 3 6 10 10 7 6 3 5 6 3 2 0 2 3 3 5 6 4 3 5 4
12 10 8 7 5 5 4 4 4 4 4 4 4 4 3 3 4 4 4 4 5 4 5 5 6 8 8 5 3 2 2 3 3 2 2 2 4 4 3 3 3 4 3
12 10 9 6 6 5 4 5 5 5 5 4 4 4 4 4 6 6 7 5 4 5 2 2 2 2 3 3 4 3 4 3 3 2 0 2 3 3 3 3 2 2 2
11 8 8 6 5 4 4 3 8 10 9 11 8 6 4 9 7 8 11 9 6 7 1 3 3 3 4 3 4 4 3 4 3 2 1 1 0 2 2 3 2 2 2
12 10 7 6 5 5 4 4 5 4 6 9 9 12 13 12 12 11 8 9 8 7 4 4 5 4 4 4 4 3 2 2 2 3 3 3 1 2 2 2 2 2 3
8 11 7 5 5 4 4 5 4 4 4 5 5 9 13 17 14 8 9 7 1 4 4 5 5 4 4 4 3 3 2 3 2 4 3 2 1 2 1 2 3 2 3
8 5 5 4 4 5 4 4 5 4 5 6 6 5 6 7 5 11 13 5 5 5 4 5 5 4 4 3 3 2 3 3 4 4 2 2 2 2 2 3 4 6 6
6 11 7 5 4 5 4 4 5 5 4 5 4 6 2 4 3 4 5 4 4 4 4 5 4 4 4 4 4 4 4 4 3 3 3 3 3 3 3 4 4 4 4
5 5 9 5 4 4 4 5 4 3 5 6 5 4 6 5 5 4 4 4 5 5 5 4 3 3 3 4 4 4 5 4 4 4 4 4 3 3 3 4 4 4 4
4 4 3 4 4 4 4 4 5 5 5 5 4 3 8 2 3 4 4 4 4 4 3 4 3 4 5 5 5 5 5 5 5 4 4 4 3 4 3 4 4 4 4
5 5 4 3 4 5 4 4 4 4 5 6 5 4 4 4 4 4 4 4 4 3 3 3 3 3 4 5 5 5 5 6 5 5 4 4 4 4 4 4 4 4 4
5 4 2 2 3 4 4 5 4 7 5 3 3 4 4 4 4 5 5 4 4 3 3 3 4 5 4 5 5 4 4 4 4 4 4 4 5 4 4 4 5 6 6
5 3 2 3 4 3 3 3 4 3 5 5 4 2 3 3 3 4 4 4 4 3 4 4 3 5 6 7 6 7 7 9 5 4 3 4 6 6 5 5 6 6 7
4 3 3 2 3 3 3 4 4 3 2 3 4 5 4 4 4 5 5 5 4 4 4 3 4 5 3 3 7 9 8 7 5 5 3 4 4 5 4 6 8 6 7
Wind_Direction
131 129 118 115 112 102 106 109 102 92 95 87 70 63 56 46 32 62 64 63 78 77 57 59 47 33 22 15 15 13 24 38 47 310 300 314 335 354 354 348 345 344 321
139 132 129 122 116 112 112 108 110 111 95 96 81 75 66 46 53 66 72 69 75 62 49 45 32 31 29 12 11 2 0 353 77 340 294 316 335 347 333 335 335 337 326
141 136 130 128 125 121 121 117 111 113 104 89 83 83 76 56 76 70 74 84 89 81 64 56 33 39 8 4 20 0 331 53 18 193 294 306 294 2 333 326 329 331 331
143 132 133 131 127 122 115 113 112 112 111 98 93 96 91 85 87 100 101 104 105 103 75 64 43 39 36 23 8 33 22 25 7 5 334 303 313 306 319 340 353 346 337
134 128 133 126 125 123 122 124 121 114 114 114 113 92 95 115 168 164 140 122 115 89 49 13 13 51 49 46 62 3 24 26 1 354 345 19 339 341 354 318 304 310 310
133 134 136 132 131 131 133 133 122 117 105 100 100 111 78 35 312 186 158 144 111 87 61 8 2 43 31 33 38 36 49 58 11 22 323 347 342 335 339 335 327 354 341
136 142 141 137 134 139 136 134 138 144 133 136 135 82 37 336 21 156 179 161 156 157 105 49 14 10 11 17 14 26 38 26 33 175 340 282 307 313 332 345 342 318 306
144 148 145 141 137 144 142 149 151 149 165 170 196 173 181 290 91 92 116 177 175 197 201 176 31 339 330 359 1 9 9 2 4 7 230 272 249 274 302 268 282 302 315
149 153 153 147 145 150 155 158 160 144 158 180 187 200 203 246 116 104 90 104 175 229 228 253 289 312 310 330 5 18 2 343 327 1 7 4 14 10 90 32 356 14 325
160 158 152 150 148 157 166 162 149 146 187 187 222 221 237 253 262 150 121 122 137 270 258 286 300 290 307 316 243 175 338 285 338 341 348 346 352 347 30 58 165 23 298
142 146 146 149 153 160 166 146 147 167 174 205 228 229 235 236 251 235 171 152 179 249 291 295 284 284 293 269 221 196 233 186 256 332 322 335 341 345 341 344 170 177 287
144 147 151 146 165 162 168 156 146 169 184 192 204 243 230 242 237 228 213 193 184 191 241 261 280 293 310 304 236 226 241 226 117 5 348 332 330 326 320 323 322 271 231
147 150 150 154 165 170 161 149 142 184 196 206 212 237 267 246 238 233 210 219 212 207 232 252 276 296 321 324 279 173 146 162 208 45 300 293 279 284 307 324 4 1 345
150 152 149 157 169 160 152 161 184 195 211 206 213 238 242 272 254 231 225 211 226 235 266 269 280 292 290 277 304 294 231 197 217 224 245 279 303 344 2 345 19 355 344
145 152 158 161 167 163 194 183 200 231 190 200 233 213 206 251 241 207 197 205 216 226 201 293 283 292 294 294 286 258 226 197 202 192 333 326 319 334 345 347 360 338 339
145 158 165 158 166 178 189 231 246 235 226 228 211 182 238 236 271 227 213 220 220 167 163 240 259 239 263 275 282 287 240 208 173 163 150 119 223 316 325 329 338 332 308
159 161 164 160 164 175 184 186 236 291 261 242 220 214 220 241 223 227 202 177 169 134 220 239 249 254 264 254 250 231 248 170 174 150 142 144 223 263 307 305 313 284 292
144 146 156 162 171 171 203 214 221 219 251 287 251 217 233 234 225 200 157 117 154 222 223 236 247 243 246 249 256 239 206 152 154 148 143 175 246 257 298 298 300 280 281
144 149 153 167 174 192 201 223 231 239 244 260 290 276 267 254 210 182 171 198 216 227 221 233 231 231 236 231 224 186 174 174 161 151 173 201 257 240 272 276 285 295 295
145 149 156 179 195 209 205 214 227 229 249 254 256 253 212 136 182 184 192 198 212 230 223 221 229 217 217 192 168 161 145 154 173 182 203 222 246 235 257 274 275 279 282
163 163 170 174 195 207 201 205 205 213 235 228 223 237 203 170 202 228 214 208 211 217 210 199 204 199 195 176 170 175 187 201 200 202 212 236 245 271 263 266 268 275 276
153 141 147 169 198 213 216 206 206 230 241 257 238 236 213 255 172 188 205 212 209 196 190 183 201 214 203 192 193 191 196 207 204 208 224 242 257 270 273 269 279 271 271
129 153 180 201 210 217 224 225 221 238 244 235 222 181 189 199 198 195 198 203 198 197 194 190 206 238 233 224 212 205 201 208 200 190 214 243 266 274 273 271 270 274 261
157 159 175 283 266 227 211 222 219 229 226 224 219 201 187 193 187 195 199 194 187 197 199 214 232 247 244 228 225 216 199 188 177 203 226 248 265 270 265 261 261 263 266
159 134 238 271 264 222 226 231 221 206 215 209 204 173 173 187 203 213 200 193 192 196 229 232 223 249 261 253 218 186 184 181 187 212 230 243 258 267 258 259 262 264 260
143 178 236 266 205 206 209 213 218 203 180 178 196 204 206 213 225 213 201 191 198 212 227 229 251 249 221 191 181 184 185 205 230 230 226 237 259 265 255 260 262 259 259